Regional Weather Roundup
Issued by NWS Spokane, WA

Home | Current Version | Previous Version | Text Only | Print | Product List | Glossary On
Versions: 1 2 3 4 5 6 7 8 9 10 11 12 13 14 15 16 17 18 19 20 21 22 23 24 25 26 27 28 29 30 31 32 33 34 35 36 37 38 39 40 41 42 43 44 45 46 47 48 49 50
000
NZUS01 KOTX 210010
RWROTX
EASTERN WASHINGTON/NORTHERN IDAHO ROUNDUP
NATIONAL WEATHER SERVICE, SPOKANE WA
500 PM PDT WED AUG 20 2014

Note: "fair" indicated few or no clouds below 12,000 feet with no
significant weather and/or obstructions to visibility.

...NORTHEAST WASHINGTON AND NORTHERN IDAHO PANHANDLE...

CITY           SKY/WX    TMP DP  RH WIND       PRES   REMARKS
SPOKANE INTL   MOSUNNY   77  48  35 S8G17     29.81F
SPOKANE DOWNTO MOSUNNY   81  46  29 W8        29.80S
COEUR D ALENE  MOSUNNY   79  46  31 SW13      29.80F
DEER PARK      CLOUDY    75  50  41 S12G21    29.81S
SANDPOINT      HVY RAIN  61  61 100 E5        29.86R

...SOUTHEAST WASHINGTON AND SOUTHERN IDAHO PANHANDLE...

CITY           SKY/WX    TMP DP  RH WIND       PRES   REMARKS
WALLA WALLA    SUNNY     83  41  22 W9        29.81F
PULLMAN/MOSCOW MOSUNNY   76  45  33 W12G20    29.86F
LEWISTON       SUNNY     85  42  22 NW14      29.78S
LOWELL           N/A     80  59  48 NW3       29.73F

...COLUMBIA BASIN...

CITY           SKY/WX    TMP DP  RH WIND       PRES   REMARKS
EPHRATA        SUNNY     86  44  23 SW13      29.75F
MOSES LAKE     SUNNY     87  45  23 W10G18    29.76F
TRI CITIES     SUNNY     86  47  25 S9        29.76
HERMISTON      SUNNY     85  37  18 W10       29.78F
PENDLETON      SUNNY     82  26  13 W18G26    29.82S

...EAST SLOPES CASCADES...

CITY           SKY/WX    TMP DP  RH WIND       PRES   REMARKS
THE DALLES     SUNNY     79  44  28 NW28G37   29.84S
YAKIMA         SUNNY     86  47  25 NW14      29.79R
ELLENSBURG     MOSUNNY   76  49  38 NW29G39   29.82F
WENATCHEE      MOSUNNY   87  45  23 NW18      29.76S
OMAK           MOSUNNY   87  46  24 N13       29.75F

...SOUTHERN BRITISH COLUMBIA...

CITY           SKY/WX    TMP DP  RH WIND       PRES   REMARKS
PENTICTON      PTSUNNY   79  52  38 NE8G17    29.80S
CASTLEGAR      PTSUNNY   75  59  57 S8        29.78R THUNDER
CRANBROOK      TSTM      63  55  77 NW5       29.89R

...WESTERN MONTANA...

CITY           SKY/WX    TMP DP  RH WIND       PRES   REMARKS
MISSOULA       MOSUNNY   76  50  40 NW8       29.84S

...NEIGHBORING CITIES...

CITY           SKY/WX    TMP DP  RH WIND       PRES   REMARKS
SEATTLE        MOSUNNY   70  52  52 SW7       29.99S
CALGARY        CLOUDY    55  52  88 N7        29.99R



USA.gov is the U.S. government's official web portal to all federal, state and local government web resources and services.